GW3202 Weather Reports


time (UTC)temp
F
wind
direction
speed
knots
gust
knots
rain 1hr
in
rain 24hr
in
rain mn
in
humidity
%
barometer
mb
20260902112003 65 63 0.9 4.3 0.00 0.00 0.00 95 1022.5
20260902111003 65 10 0.9 5.2 0.00 0.00 0.00 95 1022.6
20260902110004 65 76 1.7 5.2 0.00 0.00 0.00 95 1022.7
20260902105003 65 103 0.9 5.2 0.00 0.00 0.00 95 1022.5
20260902104003 65 31 1.7 5.2 0.00 0.00 0.00 95 1022.4
20260902103003 65 99 1.7 5.2 0.00 0.00 0.00 95 1022.4
20260902102004 65 118 1.7 4.3 0.00 0.00 0.00 95 1022.7
20260902101002 65 85 0.9 5.2 0.00 0.00 0.00 95 1022.5
20260902100003 65 99 1.7 5.2 0.00 0.00 0.00 94 1022.6
20260902095003 66 113 2.6 5.2 0.00 0.00 0.00 94 1022.7
20260902093003 66 11 1.7 7.0 0.00 0.00 0.00 94 1022.7
20260902092003 66 101 2.6 4.3 0.00 0.00 0.00 93 1023.0
20260902091003 66 49 1.7 2.6 0.00 0.00 0.00 93 1023.0
20260902090004 66 72 1.7 2.6 0.00 0.00 0.00 93 1023.0
20260902085003 66 20 0.0 4.3 0.00 0.00 0.00 93 1023.1
20260902084003 66 17 1.7 4.3 0.00 0.00 0.00 92 1023.1
20260902083003 66 60 0.9 4.3 0.00 0.00 0.00 92 1023.2
20260902082002 66 28 0.9 4.3 0.00 0.00 0.00 93 1023.2
20260902081003 66 131 1.7 4.3 0.00 0.00 0.00 94 1023.3
20260902080003 66 93 0.9 4.3 0.00 0.00 0.00 94 1023.3
20260902074003 66 96 0.9 2.6 0.00 0.00 0.00 95 1023.4
20260902073003 66 131 0.9 1.7 0.00 0.00 0.00 95 1023.5
20260902071003 66 90 0.0 1.7 0.00 0.00 0.00 95 1023.7
20260902070005 65 175 0.0 1.7 0.00 0.00 0.00 95 1023.6
20260902065003 65 277 0.9 2.6 0.00 0.00 0.00 95 1023.7
20260902064004 65 185 1.7 4.3 0.00 0.00 0.00 95 1023.8
20260902062004 66 245 2.6 2.6 0.00 0.00 0.00 95 1024.0
20260902060003 66 262 0.0 4.3 0.00 0.00 0.00 95 1024.1
20260902055003 66 249 0.9 7.0 0.00 0.00 0.00 96 1024.0
20260902054004 66 254 2.6 6.1 0.00 0.00 0.00 96 1024.0
20260902053004 66 259 1.7 5.2 0.00 0.00 0.00 95 1024.0
20260902051004 66 190 0.0 4.3 0.00 0.00 0.00 95 1023.9
20260902045005 67 285 3.5 5.2 0.00 0.00 0.00 93 1023.9
20260902044003 68 288 0.9 2.6 0.00 0.00 0.00 90 1023.8
20260902043003 67 75 0.9 2.6 0.00 0.00 0.00 90 1023.7
20260902041003 67 65 0.9 4.3 0.00 0.00 0.00 92 1023.6
20260902040005 67 296 1.7 8.7 0.00 0.00 0.00 90 1023.6
20260902035003 67 117 5.2 11.3 0.00 0.00 0.00 89 1023.3
20260902032003 67 124 7.8 15.6 0.00 0.00 0.00 90 1023.0
20260902031003 68 110 4.3 17.4 0.00 0.00 0.00 87 1022.7
20260902030003 68 129 5.2 19.1 0.00 0.00 0.00 85 1022.5
20260902024003 68 118 9.6 17.4 0.00 0.00 0.00 83 1022.3
20260902023003 68 156 5.2 17.4 0.00 0.00 0.00 86 1022.1
20260902022003 68 142 8.7 18.2 0.00 0.00 0.00 85 1021.8
20260902021003 68 138 7.8 19.1 0.00 0.00 0.00 86 1021.8
20260902020004 68 133 8.7 14.8 0.00 0.00 0.00 85 1021.7
20260902015003 68 130 7.8 14.8 0.00 0.00 0.00 86 1021.6
20260902014005 69 141 6.1 13.0 0.00 0.00 0.00 85 1021.4
20260902013003 68 169 2.6 14.8 0.00 0.00 0.00 87 1021.3
20260902012006 68 134 9.6 15.6 0.00 0.00 0.00 88 1021.2
20260902011004 69 135 6.1 17.4 0.00 0.00 0.00 89 1021.0
20260902010003 68 154 6.1 17.4 0.00 0.00 0.00 91 1021.0
20260902004003 71 132 5.2 14.8 0.00 0.00 0.00 83 1020.7
20260902002004 71 152 6.1 12.2 0.00 0.00 0.00 83 1020.7
20260902001003 71 131 8.7 13.0 0.00 0.00 0.00 84 1020.5
20260902000003 72 207 6.1 12.2 0.00 0.00 0.00 82 1020.5
20260901235004 72 166 4.3 11.3 0.00 0.00 0.00 78 1020.4
20260901234004 72 179 1.7 13.0 0.00 0.00 0.00 79 1020.3
20260901232005 71 171 2.6 10.4 0.00 0.00 0.00 81 1020.2
20260901231003 71 161 2.6 12.2 0.00 0.00 0.00 85 1020.0
20260901230004 71 131 5.2 13.0 0.00 0.00 0.00 86 1020.1
20260901225003 72 153 6.1 13.9 0.00 0.00 0.00 86 1020.4
20260901224005 72 182 6.1 13.0 0.00 0.00 0.00 84 1020.2
20260901223004 73 147 5.2 13.0 0.00 0.00 0.00 84 1020.0
20260901221004 73 138 3.5 12.2 0.00 0.00 0.00 76 1020.2
20260901215004 74 188 1.7 10.4 0.00 0.00 0.00 72 1020.4
20260901214004 74 180 3.5 11.3 0.00 0.00 0.00 72 1020.4
20260901212006 75 180 0.9 7.0 0.00 0.00 0.00 70 1020.6
20260901211003 75 164 2.6 7.0 0.00 0.00 0.00 69 1020.5
20260901210003 74 196 4.3 7.8 0.00 0.00 0.00 69 1020.6
20260901203004 73 148 4.3 8.7 0.00 0.00 0.00 72 1021.0
20260901202003 72 203 2.6 12.2 0.00 0.00 0.00 74 1021.4
20260901201004 71 194 3.5 13.0 0.00 0.00 0.00 76 1021.3
20260901200003 72 158 6.1 15.6 0.00 0.00 0.00 77 1021.5
20260901195006 73 188 4.3 15.6 0.00 0.00 0.00 73 1021.6
20260901194004 76 153 7.0 13.9 0.00 0.00 0.00 72 1021.6
20260901193004 77 192 6.1 13.9 0.00 0.00 0.00 65 1021.6
20260901192004 77 139 4.3 13.0 0.00 0.00 0.00 63 1021.8
20260901191005 78 194 2.6 12.2 0.00 0.00 0.00 62 1021.8
20260901190003 78 180 2.6 12.2 0.00 0.00 0.00 62 1021.9
20260901185004 77 194 3.5 11.3 0.00 0.00 0.00 62 1022.0
20260901184004 77 165 5.2 10.4 0.00 0.00 0.00 59 1022.0
20260901183004 77 167 2.6 11.3 0.00 0.00 0.00 60 1022.3
20260901182004 78 178 4.3 10.4 0.00 0.00 0.00 58 1022.2
20260901181003 78 141 4.3 7.8 0.00 0.00 0.00 62 1022.2
20260901180003 77 160 1.7 7.8 0.00 0.00 0.00 62 1022.2
20260901175003 76 136 1.7 7.0 0.00 0.00 0.00 63 1022.2
20260901174003 76 221 2.6 7.0 0.00 0.00 0.00 65 1022.2
20260901172003 74 242 1.7 6.1 0.00 0.00 0.00 72 1022.4
20260901171004 74 309 1.7 2.6 0.00 0.00 0.00 71 1022.5
20260901164003 71 259 0.0 5.2 0.00 0.00 0.00 76 1022.2
20260901163004 71 329 2.6 5.2 0.00 0.00 0.00 75 1022.3
20260901162004 71 4 0.0 4.3 0.00 0.00 0.00 76 1022.3
20260901161004 69 355 1.7 4.3 0.00 0.00 0.00 79 1022.4
20260901160003 70 277 1.7 5.2 0.00 0.00 0.00 79 1022.4
20260901155003 69 43 1.7 5.2 0.00 0.00 0.00 80 1022.6
20260901154004 69 331 1.7 6.1 0.00 0.00 0.00 81 1022.5
20260901153003 70 79 1.7 6.1 0.00 0.00 0.00 80 1022.5
20260901152004 69 351 1.7 6.1 0.00 0.00 0.00 79 1022.5
20260901151004 70 102 2.6 5.2 0.00 0.00 0.00 78 1022.5
20260901150004 70 111 2.6 6.1 0.00 0.00 0.00 80 1022.5
20260901144003 68 36 2.6 6.1 0.00 0.00 0.00 82 1022.5
20260901143003 69 68 2.6 5.2 0.00 0.00 0.00 82 1022.6
20260901142005 67 20 0.9 5.2 0.00 0.00 0.00 83 1022.7
20260901141004 69 113 3.5 4.3 0.00 0.00 0.00 82 1022.4
20260901140003 68 95 1.7 4.3 0.00 0.00 0.00 83 1022.5
20260901134004 67 64 0.9 2.6 0.00 0.00 0.00 85 1022.4
20260901133004 66 63 0.9 2.6 0.00 0.00 0.00 88 1022.5
20260901132004 64 114 0.0 2.6 0.00 0.00 0.00 91 1022.4
20260901130003 63 125 0.9 2.6 0.00 0.00 0.00 93 1022.4
20260901125007 63 91 0.9 1.7 0.00 0.00 0.00 94 1022.3
20260901122004 64 120 0.9 1.7 0.00 0.00 0.00 94 1022.0
20260901121004 63 78 0.0 1.7 0.00 0.00 0.00 94 1022.0
20260901120003 64 104 1.7 1.7 0.00 0.00 0.00 94 1021.8
20260901115003 64 106 0.9 1.7 0.00 0.00 0.00 94 1021.9